| time (UTC) | temp F | wind direction | speed MPH | gust MPH | rain 1hr in | rain 24hr in | rain mn in | humidity % | barometer mb |
| 20260902114545 | 51 | 321 | 4.0 | 5.0 | 0.00 | 0.00 | 0.00 | 1 | 1008.8 |
| 20260902114018 | 51 | 303 | 4.0 | 5.0 | 0.00 | 0.00 | 0.00 | 1 | 1009.1 |
| 20260902113516 | 50 | 302 | 3.0 | 5.0 | 0.00 | 0.00 | 0.00 | 1 | 1009.2 |
| 20260902113050 | 50 | 83 | 2.0 | 4.0 | 0.00 | 0.00 | 0.00 | 1 | 1009.2 |
| 20260902112516 | 50 | 83 | 3.0 | 4.0 | 0.00 | 0.00 | 0.00 | 1 | 1009.5 |
| 20260902112016 | 51 | 83 | 1.0 | 3.0 | 0.00 | 0.00 | 0.00 | 1 | 1009.4 |
| 20260902111547 | 52 | 83 | 2.0 | 3.0 | 0.00 | 0.00 | 0.00 | 1 | 1009.1 |
| 20260902111021 | 52 | 83 | 1.0 | 4.0 | 0.00 | 0.00 | 0.00 | 1 | 1009.2 |
| 20260902110519 | 53 | 83 | 1.0 | 4.0 | 0.00 | 0.00 | 0.00 | 1 | 1009.2 |
| 20260902110040 | 53 | 83 | 0.0 | 0.0 | 0.00 | 0.00 | 0.00 | 1 | 1009.0 |
| 20260902105517 | 53 | 83 | 0.0 | 1.0 | 0.00 | 0.00 | 0.00 | 1 | 1008.9 |
| 20260902105021 | 53 | 83 | 0.0 | 3.0 | 0.00 | 0.00 | 0.00 | 1 | 1008.7 |
| 20260902104600 | 53 | 83 | 1.0 | 3.0 | 0.00 | 0.00 | 0.00 | 1 | 1008.7 |
| 20260902104017 | 53 | 83 | 0.0 | 6.0 | 0.00 | 0.00 | 0.00 | 1 | 1008.6 |
| 20260902103519 | 53 | 83 | 3.0 | 6.0 | 0.00 | 0.00 | 0.00 | 1 | 1008.5 |
| 20260902103040 | 53 | 83 | 4.0 | 9.0 | 0.00 | 0.00 | 0.00 | 1 | 1008.4 |
| 20260902102517 | 52 | 102 | 6.0 | 9.0 | 0.00 | 0.00 | 0.00 | 1 | 1008.6 |
| 20260902102019 | 52 | 77 | 0.0 | 2.0 | 0.00 | 0.00 | 0.00 | 1 | 1008.6 |
| 20260902101550 | 53 | 77 | 0.0 | 2.0 | 0.00 | 0.00 | 0.00 | 1 | 1008.3 |
| 20260902101021 | 52 | 77 | 0.0 | 5.0 | 0.00 | 0.00 | 0.00 | 1 | 1008.2 |
| 20260902100518 | 52 | 77 | 2.0 | 5.0 | 0.00 | 0.00 | 0.00 | 1 | 1008.1 |
| 20260902100039 | 52 | 77 | 3.0 | 4.0 | 0.00 | 0.00 | 0.00 | 1 | 1008.1 |
| 20260902095516 | 52 | 77 | 1.0 | 3.0 | 0.00 | 0.00 | 0.00 | 1 | 1008.3 |
| 20260902095016 | 52 | 77 | 0.0 | 3.0 | 0.00 | 0.00 | 0.00 | 1 | 1008.4 |
| 20260902094540 | 52 | 77 | 1.0 | 3.0 | 0.00 | 0.00 | 0.00 | 1 | 1008.3 |
| 20260902094020 | 52 | 77 | 0.0 | 3.0 | 0.00 | 0.00 | 0.00 | 1 | 1008.4 |
| 20260902093519 | 52 | 77 | 0.0 | 3.0 | 0.00 | 0.00 | 0.00 | 1 | 1008.5 |
| 20260902093046 | 52 | 77 | 1.0 | 3.0 | 0.00 | 0.00 | 0.00 | 1 | 1008.7 |
| 20260902092518 | 52 | 77 | 0.0 | 1.0 | 0.00 | 0.00 | 0.00 | 1 | 1008.6 |
| 20260902092018 | 53 | 77 | 0.0 | 4.0 | 0.00 | 0.00 | 0.00 | 1 | 1008.6 |
| 20260902091541 | 53 | 77 | 1.0 | 4.0 | 0.00 | 0.00 | 0.00 | 1 | 1008.7 |
| 20260902091016 | 53 | 77 | 0.0 | 4.0 | 0.00 | 0.00 | 0.00 | 1 | 1008.9 |
| 20260902090519 | 54 | 77 | 2.0 | 4.0 | 0.00 | 0.00 | 0.00 | 1 | 1009.0 |
| 20260902090040 | 54 | 77 | 1.0 | 3.0 | 0.00 | 0.00 | 0.00 | 1 | 1009.2 |
| 20260902085515 | 54 | 77 | 0.0 | 3.0 | 0.00 | 0.00 | 0.00 | 1 | 1009.3 |
| 20260902085017 | 55 | 77 | 1.0 | 5.0 | 0.00 | 0.00 | 0.00 | 1 | 1009.5 |
| 20260902084541 | 56 | 77 | 2.0 | 5.0 | 0.00 | 0.00 | 0.00 | 1 | 1009.5 |
| 20260902084019 | 57 | 77 | 0.0 | 4.0 | 0.00 | 0.00 | 0.00 | 1 | 1009.5 |
| 20260902083520 | 58 | 77 | 0.0 | 4.0 | 0.00 | 0.00 | 0.00 | 1 | 1009.4 |
| 20260902083059 | 58 | 77 | 2.0 | 5.0 | 0.00 | 0.00 | 0.00 | 1 | 1009.5 |
| 20260902082518 | 58 | 77 | 2.0 | 5.0 | 0.00 | 0.00 | 0.00 | 1 | 1009.5 |
| 20260902082016 | 57 | 77 | 0.0 | 3.0 | 0.00 | 0.00 | 0.00 | 1 | 1009.5 |
| 20260902081544 | 58 | 77 | 0.0 | 4.0 | 0.00 | 0.00 | 0.00 | 1 | 1009.6 |
| 20260902081017 | 58 | 77 | 2.0 | 4.0 | 0.00 | 0.00 | 0.00 | 1 | 1009.5 |
| 20260902080516 | 58 | 77 | 1.0 | 4.0 | 0.00 | 0.00 | 0.00 | 1 | 1009.6 |
| 20260902080042 | 58 | 77 | 2.0 | 6.0 | 0.00 | 0.00 | 0.00 | 1 | 1009.6 |
| 20260902075517 | 58 | 77 | 3.0 | 6.0 | 0.00 | 0.00 | 0.00 | 1 | 1009.7 |
| 20260902075019 | 58 | 77 | 4.0 | 6.0 | 0.00 | 0.00 | 0.00 | 1 | 1009.6 |
| 20260902074546 | 58 | 77 | 3.0 | 6.0 | 0.00 | 0.00 | 0.00 | 1 | 1009.6 |
| 20260902074018 | 58 | 52 | 4.0 | 6.0 | 0.00 | 0.00 | 0.00 | 1 | 1009.5 |
| 20260902073518 | 57 | 49 | 4.0 | 8.0 | 0.00 | 0.00 | 0.00 | 1 | 1009.5 |
| 20260902073043 | 57 | 42 | 4.0 | 8.0 | 0.00 | 0.00 | 0.00 | 1 | 1009.4 |
| 20260902072519 | 58 | 44 | 3.0 | 6.0 | 0.00 | 0.00 | 0.00 | 1 | 1009.6 |
| 20260902072018 | 59 | 104 | 2.0 | 4.0 | 0.00 | 0.00 | 0.00 | 1 | 1009.5 |
| 20260902071539 | 60 | 104 | 2.0 | 4.0 | 0.00 | 0.00 | 0.00 | 1 | 1009.6 |
| 20260902071016 | 61 | 104 | 1.0 | 3.0 | 0.00 | 0.00 | 0.00 | 1 | 1009.8 |
| 20260902070517 | 62 | 104 | 1.0 | 6.0 | 0.00 | 0.00 | 0.00 | 1 | 1009.9 |
| 20260902070044 | 63 | 104 | 2.0 | 9.0 | 0.00 | 0.00 | 0.00 | 1 | 1009.8 |
| 20260902065527 | 63 | 98 | 5.0 | 9.0 | 0.00 | 0.00 | 0.00 | 1 | 1009.7 |
| 20260902065022 | 63 | 89 | 3.0 | 7.0 | 0.00 | 0.00 | 0.00 | 1 | 1009.7 |
| 20260902064549 | 63 | 76 | 4.0 | 10.0 | 0.00 | 0.00 | 0.00 | 1 | 1009.8 |
| 20260902064019 | 64 | 94 | 6.0 | 10.0 | 0.00 | 0.00 | 0.00 | 1 | 1009.8 |
| 20260902063519 | 64 | 103 | 6.0 | 10.0 | 0.00 | 0.00 | 0.00 | 1 | 1009.9 |
| 20260902063044 | 64 | 108 | 6.0 | 10.0 | 0.00 | 0.00 | 0.00 | 1 | 1009.8 |
| 20260902062518 | 64 | 97 | 7.0 | 9.0 | 0.00 | 0.00 | 0.00 | 1 | 1010.0 |
| 20260902062016 | 64 | 96 | 7.0 | 10.0 | 0.00 | 0.00 | 0.00 | 1 | 1009.9 |
| 20260902061548 | 64 | 113 | 6.0 | 10.0 | 0.00 | 0.00 | 0.00 | 1 | 1010.1 |
| 20260902061018 | 64 | 103 | 6.0 | 9.0 | 0.00 | 0.00 | 0.00 | 1 | 1010.1 |
| 20260902060521 | 65 | 97 | 6.0 | 10.0 | 0.00 | 0.00 | 0.00 | 1 | 1010.1 |
| 20260902060039 | 65 | 107 | 7.0 | 10.0 | 0.00 | 0.00 | 0.00 | 1 | 1010.0 |
| 20260902055518 | 65 | 91 | 6.0 | 9.0 | 0.00 | 0.00 | 0.00 | 1 | 1010.1 |
| 20260902055219 | 65 | 100 | 8.0 | 12.0 | 0.00 | 0.00 | 0.00 | 1 | 1010.0 |
| 20260902054023 | 65 | 105 | 9.0 | 13.0 | 0.00 | 0.00 | 0.00 | 1 | 1010.1 |
| 20260902053523 | 64 | 90 | 8.0 | 12.0 | 0.00 | 0.00 | 0.00 | 1 | 1010.4 |
| 20260902053033 | 64 | 100 | 7.0 | 10.0 | 0.00 | 0.00 | 0.00 | 1 | 1010.3 |
| 20260902052517 | 64 | 75 | 6.0 | 9.0 | 0.00 | 0.00 | 0.00 | 1 | 1010.3 |
| 20260902052017 | 63 | 92 | 5.0 | 8.0 | 0.00 | 0.00 | 0.00 | 1 | 1010.2 |
| 20260902051535 | 64 | 84 | 5.0 | 8.0 | 0.00 | 0.00 | 0.00 | 1 | 1010.3 |
| 20260902051016 | 64 | 69 | 5.0 | 9.0 | 0.00 | 0.00 | 0.00 | 1 | 1010.2 |
| 20260902050522 | 66 | 86 | 6.0 | 10.0 | 0.00 | 0.00 | 0.00 | 1 | 1010.2 |
| 20260902050032 | 66 | 98 | 6.0 | 12.0 | 0.00 | 0.00 | 0.00 | 1 | 1010.3 |
| 20260902045516 | 66 | 95 | 8.0 | 12.0 | 0.00 | 0.00 | 0.00 | 1 | 1010.1 |
| 20260902045022 | 66 | 88 | 5.0 | 9.0 | 0.00 | 0.00 | 0.00 | 1 | 1010.2 |
| 20260902044541 | 66 | 93 | 5.0 | 8.0 | 0.00 | 0.00 | 0.00 | 1 | 1010.2 |
| 20260902044020 | 66 | 91 | 6.0 | 9.0 | 0.00 | 0.00 | 0.00 | 1 | 1010.2 |
| 20260902043516 | 66 | 107 | 6.0 | 8.0 | 0.00 | 0.00 | 0.00 | 1 | 1010.2 |
| 20260902043042 | 66 | 110 | 5.0 | 8.0 | 0.00 | 0.00 | 0.00 | 1 | 1010.3 |
| 20260902042519 | 66 | 116 | 4.0 | 9.0 | 0.00 | 0.00 | 0.00 | 1 | 1010.3 |
| 20260902042021 | 65 | 111 | 6.0 | 9.0 | 0.00 | 0.00 | 0.00 | 1 | 1010.3 |
| 20260902041535 | 65 | 102 | 5.0 | 9.0 | 0.00 | 0.00 | 0.00 | 1 | 1010.4 |
| 20260902041021 | 65 | 94 | 5.0 | 7.0 | 0.00 | 0.00 | 0.00 | 1 | 1010.3 |
| 20260902040521 | 64 | 82 | 4.0 | 8.0 | 0.00 | 0.00 | 0.00 | 1 | 1010.4 |
| 20260902040036 | 64 | 87 | 5.0 | 8.0 | 0.00 | 0.00 | 0.00 | 1 | 1010.4 |
| 20260902035517 | 63 | 69 | 3.0 | 4.0 | 0.00 | 0.00 | 0.00 | 1 | 1010.4 |
| 20260902035016 | 63 | 76 | 2.0 | 6.0 | 0.00 | 0.00 | 0.00 | 1 | 1010.5 |
| 20260902034534 | 63 | 92 | 2.0 | 6.0 | 0.00 | 0.00 | 0.00 | 1 | 1010.5 |
| 20260902034018 | 64 | 92 | 2.0 | 6.0 | 0.00 | 0.00 | 0.00 | 1 | 1010.6 |
| 20260902033515 | 64 | 92 | 4.0 | 7.0 | 0.00 | 0.00 | 0.00 | 1 | 1010.6 |
| 20260902033041 | 63 | 69 | 3.0 | 7.0 | 0.00 | 0.00 | 0.00 | 1 | 1010.6 |
| 20260902032518 | 62 | 82 | 3.0 | 8.0 | 0.00 | 0.00 | 0.00 | 1 | 1010.4 |
| 20260902032021 | 61 | 62 | 3.0 | 5.0 | 0.00 | 0.00 | 0.00 | 1 | 1010.4 |
| 20260902031539 | 61 | 46 | 1.0 | 4.0 | 0.00 | 0.00 | 0.00 | 1 | 1010.4 |
| 20260902031022 | 60 | 38 | 2.0 | 4.0 | 0.00 | 0.00 | 0.00 | 1 | 1010.5 |
| 20260902030521 | 60 | 126 | 1.0 | 3.0 | 0.00 | 0.00 | 0.00 | 1 | 1010.5 |
| 20260902030034 | 61 | 126 | 0.0 | 4.0 | 0.00 | 0.00 | 0.00 | 1 | 1010.4 |
| 20260902025519 | 62 | 126 | 2.0 | 4.0 | 0.00 | 0.00 | 0.00 | 1 | 1010.5 |
| 20260902025016 | 63 | 126 | 2.0 | 4.0 | 0.00 | 0.00 | 0.00 | 1 | 1010.2 |
| 20260902024535 | 64 | 126 | 1.0 | 4.0 | 0.00 | 0.00 | 0.00 | 1 | 1010.2 |
| 20260902024015 | 65 | 126 | 2.0 | 3.0 | 0.00 | 0.00 | 0.00 | 1 | 1010.2 |
| 20260902023517 | 66 | 126 | 0.0 | 2.0 | 0.00 | 0.00 | 0.00 | 1 | 1010.2 |
| 20260902023037 | 66 | 126 | 0.0 | 2.0 | 0.00 | 0.00 | 0.00 | 1 | 1010.1 |
| 20260902022518 | 66 | 126 | 0.0 | 2.0 | 0.00 | 0.00 | 0.00 | 1 | 1010.1 |
| 20260902022020 | 67 | 126 | 0.0 | 2.0 | 0.00 | 0.00 | 0.00 | 1 | 1010.2 |
| 20260902021534 | 68 | 126 | 1.0 | 3.0 | 0.00 | 0.00 | 0.00 | 1 | 1010.3 |
| 20260902021017 | 68 | 126 | 2.0 | 3.0 | 0.00 | 0.00 | 0.00 | 1 | 1010.2 |
| 20260902020518 | 69 | 126 | 2.0 | 3.0 | 0.00 | 0.00 | 0.00 | 1 | 1010.4 |
| 20260902020035 | 69 | 126 | 1.0 | 3.0 | 0.00 | 0.00 | 0.00 | 1 | 1010.3 |
| 20260902015516 | 70 | 126 | 1.0 | 3.0 | 0.00 | 0.00 | 0.00 | 1 | 1010.3 |
| 20260902015016 | 70 | 126 | 2.0 | 3.0 | 0.00 | 0.00 | 0.00 | 1 | 1010.3 |
| 20260902014534 | 71 | 126 | 2.0 | 4.0 | 0.00 | 0.00 | 0.00 | 1 | 1010.6 |
| 20260902014016 | 72 | 126 | 2.0 | 6.0 | 0.00 | 0.00 | 0.00 | 1 | 1010.4 |
| 20260902013522 | 74 | 126 | 3.0 | 7.0 | 0.00 | 0.00 | 0.00 | 1 | 1010.4 |
| 20260902013035 | 75 | 126 | 4.0 | 9.0 | 0.00 | 0.00 | 0.00 | 1 | 1010.4 |
| 20260902012519 | 76 | 126 | 5.0 | 9.0 | 0.00 | 0.00 | 0.00 | 1 | 1010.4 |
| 20260902012018 | 76 | 128 | 7.0 | 10.0 | 0.00 | 0.00 | 0.00 | 1 | 1010.4 |
| 20260902011549 | 77 | 136 | 8.0 | 10.0 | 0.00 | 0.00 | 0.00 | 1 | 1010.4 |
| 20260902011018 | 77 | 120 | 8.0 | 10.0 | 0.00 | 0.00 | 0.00 | 1 | 1010.5 |
| 20260902010518 | 78 | 136 | 7.0 | 12.0 | 0.00 | 0.00 | 0.00 | 1 | 1010.5 |
| 20260902010034 | 78 | 132 | 8.0 | 12.0 | 0.00 | 0.00 | 0.00 | 1 | 1010.4 |
| 20260902005519 | 78 | 137 | 8.0 | 11.0 | 0.00 | 0.00 | 0.00 | 1 | 1010.6 |
| 20260902005016 | 78 | 139 | 7.0 | 10.0 | 0.00 | 0.00 | 0.00 | 1 | 1010.4 |
| 20260902004536 | 79 | 146 | 7.0 | 9.0 | 0.00 | 0.00 | 0.00 | 1 | 1010.4 |
| 20260902004018 | 79 | 163 | 6.0 | 12.0 | 0.00 | 0.00 | 0.00 | 1 | 1010.3 |
| 20260902003515 | 78 | 155 | 9.0 | 12.0 | 0.00 | 0.00 | 0.00 | 1 | 1010.3 |
| 20260902003038 | 78 | 132 | 7.0 | 10.0 | 0.00 | 0.00 | 0.00 | 1 | 1010.4 |
| 20260902002520 | 79 | 129 | 7.0 | 10.0 | 0.00 | 0.00 | 0.00 | 1 | 1010.4 |
| 20260902002016 | 78 | 131 | 5.0 | 11.0 | 0.00 | 0.00 | 0.00 | 1 | 1010.4 |
| 20260902001536 | 78 | 131 | 7.0 | 13.0 | 0.00 | 0.00 | 0.00 | 1 | 1010.3 |
| 20260902001015 | 79 | 138 | 8.0 | 16.0 | 0.00 | 0.00 | 0.00 | 1 | 1010.5 |
| 20260902000516 | 79 | 126 | 11.0 | 16.0 | 0.00 | 0.00 | 0.00 | 1 | 1010.5 |
| 20260902000039 | 79 | 171 | 5.0 | 13.0 | 0.00 | 0.00 | 0.00 | 1 | 1010.6 |
| 20260901235519 | 79 | 126 | 9.0 | 15.0 | 0.00 | 0.00 | 0.00 | 1 | 1010.6 |
| 20260901235019 | 79 | 152 | 9.0 | 15.0 | 0.00 | 0.00 | 0.00 | 1 | 1010.6 |
| 20260901234545 | 79 | 159 | 7.0 | 15.0 | 0.00 | 0.00 | 0.00 | 1 | 1010.8 |
| 20260901234019 | 79 | 144 | 11.0 | 15.0 | 0.00 | 0.00 | 0.00 | 1 | 1010.7 |
| 20260901233523 | 79 | 159 | 9.0 | 17.0 | 0.00 | 0.00 | 0.00 | 1 | 1010.9 |
| 20260901233038 | 79 | 144 | 11.0 | 17.0 | 0.00 | 0.00 | 0.00 | 1 | 1010.9 |
| 20260901232517 | 79 | 142 | 8.0 | 16.0 | 0.00 | 0.00 | 0.00 | 1 | 1010.9 |
| 20260901232017 | 79 | 125 | 9.0 | 15.0 | 0.00 | 0.00 | 0.00 | 1 | 1010.8 |
| 20260901231541 | 79 | 143 | 4.0 | 11.0 | 0.00 | 0.00 | 0.00 | 1 | 1010.9 |
| 20260901231018 | 79 | 138 | 6.0 | 11.0 | 0.00 | 0.00 | 0.00 | 1 | 1011.0 |
| 20260901230518 | 79 | 134 | 7.0 | 16.0 | 0.00 | 0.00 | 0.00 | 1 | 1011.1 |
| 20260901230035 | 80 | 157 | 11.0 | 16.0 | 0.00 | 0.00 | 0.00 | 1 | 1010.8 |
| 20260901225516 | 79 | 111 | 5.0 | 17.0 | 0.00 | 0.00 | 0.00 | 1 | 1011.0 |
| 20260901225017 | 79 | 144 | 7.0 | 17.0 | 0.00 | 0.00 | 0.00 | 1 | 1010.8 |
| 20260901224533 | 79 | 112 | 8.0 | 14.0 | 0.00 | 0.00 | 0.00 | 1 | 1011.1 |
| 20260901224021 | 79 | 137 | 9.0 | 14.0 | 0.00 | 0.00 | 0.00 | 1 | 1011.3 |
| 20260901223519 | 79 | 131 | 7.0 | 12.0 | 0.00 | 0.00 | 0.00 | 1 | 1011.2 |
| 20260901223034 | 79 | 144 | 3.0 | 14.0 | 0.00 | 0.00 | 0.00 | 1 | 1011.4 |
| 20260901222517 | 79 | 144 | 10.0 | 14.0 | 0.00 | 0.00 | 0.00 | 1 | 1011.4 |
| 20260901222016 | 79 | 182 | 8.0 | 13.0 | 0.00 | 0.00 | 0.00 | 1 | 1011.4 |
| 20260901221603 | 79 | 138 | 5.0 | 18.0 | 0.00 | 0.00 | 0.00 | 1 | 1011.5 |
| 20260901221016 | 80 | 109 | 9.0 | 18.0 | 0.00 | 0.00 | 0.00 | 1 | 1011.7 |
| 20260901220518 | 79 | 179 | 8.0 | 14.0 | 0.00 | 0.00 | 0.00 | 1 | 1011.7 |
| 20260901220048 | 79 | 157 | 8.0 | 16.0 | 0.00 | 0.00 | 0.00 | 1 | 1011.7 |
| 20260901215515 | 79 | 57 | 8.0 | 14.0 | 0.00 | 0.00 | 0.00 | 1 | 1011.8 |
| 20260901215016 | 79 | 167 | 4.0 | 16.0 | 0.00 | 0.00 | 0.00 | 1 | 1011.8 |
| 20260901214534 | 79 | 173 | 12.0 | 16.0 | 0.00 | 0.00 | 0.00 | 1 | 1012.0 |
| 20260901214019 | 79 | 132 | 10.0 | 19.0 | 0.00 | 0.00 | 0.00 | 1 | 1012.0 |
| 20260901213518 | 79 | 187 | 8.0 | 19.0 | 0.00 | 0.00 | 0.00 | 1 | 1012.0 |
| 20260901213057 | 79 | 160 | 11.0 | 16.0 | 0.00 | 0.00 | 0.00 | 1 | 1012.0 |
| 20260901212516 | 79 | 144 | 6.0 | 11.0 | 0.00 | 0.00 | 0.00 | 1 | 1012.1 |
| 20260901212017 | 78 | 177 | 8.0 | 12.0 | 0.00 | 0.00 | 0.00 | 1 | 1012.1 |
| 20260901211536 | 78 | 162 | 5.0 | 14.0 | 0.00 | 0.00 | 0.00 | 1 | 1012.3 |
| 20260901211018 | 79 | 145 | 9.0 | 17.0 | 0.00 | 0.00 | 0.00 | 1 | 1012.2 |
| 20260901210517 | 79 | 175 | 13.0 | 17.0 | 0.00 | 0.00 | 0.00 | 1 | 1012.1 |
| 20260901210035 | 78 | 124 | 10.0 | 13.0 | 0.00 | 0.00 | 0.00 | 1 | 1012.2 |
| 20260901205517 | 78 | 142 | 8.0 | 16.0 | 0.00 | 0.00 | 0.00 | 1 | 1012.4 |
| 20260901205021 | 78 | 142 | 9.0 | 15.0 | 0.00 | 0.00 | 0.00 | 1 | 1012.5 |
| 20260901204535 | 77 | 132 | 8.0 | 18.0 | 0.00 | 0.00 | 0.00 | 1 | 1012.4 |
| 20260901204018 | 77 | 135 | 7.0 | 16.0 | 0.00 | 0.00 | 0.00 | 1 | 1012.5 |
| 20260901203519 | 77 | 121 | 7.0 | 16.0 | 0.00 | 0.00 | 0.00 | 1 | 1012.6 |
| 20260901203041 | 76 | 134 | 12.0 | 18.0 | 0.00 | 0.00 | 0.00 | 1 | 1012.7 |
| 20260901202516 | 77 | 105 | 13.0 | 18.0 | 0.00 | 0.00 | 0.00 | 1 | 1012.6 |
| 20260901202016 | 77 | 127 | 8.0 | 17.0 | 0.00 | 0.00 | 0.00 | 1 | 1012.7 |
| 20260901201538 | 77 | 142 | 13.0 | 17.0 | 0.00 | 0.00 | 0.00 | 1 | 1012.7 |
| 20260901201017 | 76 | 123 | 9.0 | 18.0 | 0.00 | 0.00 | 0.00 | 1 | 1012.7 |
| 20260901200520 | 76 | 92 | 12.0 | 18.0 | 0.00 | 0.00 | 0.00 | 1 | 1012.7 |
| 20260901200106 | 76 | 167 | 10.0 | 21.0 | 0.00 | 0.00 | 0.00 | 1 | 1012.9 |
| 20260901195519 | 77 | 140 | 11.0 | 21.0 | 0.00 | 0.00 | 0.00 | 1 | 1012.9 |
| 20260901195018 | 76 | 148 | 11.0 | 20.0 | 0.00 | 0.00 | 0.00 | 1 | 1012.9 |
| 20260901194546 | 76 | 135 | 11.0 | 19.0 | 0.00 | 0.00 | 0.00 | 1 | 1012.9 |
| 20260901194022 | 76 | 132 | 10.0 | 16.0 | 0.00 | 0.00 | 0.00 | 1 | 1012.9 |
| 20260901193518 | 76 | 128 | 12.0 | 20.0 | 0.00 | 0.00 | 0.00 | 1 | 1012.9 |
| 20260901193049 | 75 | 134 | 9.0 | 20.0 | 0.00 | 0.00 | 0.00 | 1 | 1013.3 |
| 20260901192518 | 75 | 136 | 14.0 | 20.0 | 0.00 | 0.00 | 0.00 | 1 | 1013.3 |
| 20260901192018 | 75 | 146 | 13.0 | 19.0 | 0.00 | 0.00 | 0.00 | 1 | 1013.3 |
| 20260901191619 | 75 | 175 | 12.0 | 20.0 | 0.00 | 0.00 | 0.00 | 1 | 1013.4 |
| 20260901191017 | 75 | 129 | 12.0 | 18.0 | 0.00 | 0.00 | 0.00 | 1 | 1013.3 |
| 20260901190519 | 75 | 136 | 13.0 | 18.0 | 0.00 | 0.00 | 0.00 | 1 | 1013.3 |
| 20260901190036 | 74 | 132 | 13.0 | 18.0 | 0.00 | 0.00 | 0.00 | 1 | 1013.3 |
| 20260901185520 | 73 | 134 | 14.0 | 18.0 | 0.00 | 0.00 | 0.00 | 1 | 1013.3 |
| 20260901185019 | 73 | 124 | 11.0 | 17.0 | 0.00 | 0.00 | 0.00 | 1 | 1013.4 |
| 20260901184539 | 72 | 134 | 12.0 | 17.0 | 0.00 | 0.00 | 0.00 | 1 | 1013.4 |
| 20260901184018 | 72 | 128 | 12.0 | 17.0 | 0.00 | 0.00 | 0.00 | 1 | 1013.6 |
| 20260901183517 | 72 | 125 | 11.0 | 20.0 | 0.00 | 0.00 | 0.00 | 1 | 1013.6 |
| 20260901183051 | 72 | 171 | 12.0 | 17.0 | 0.00 | 0.00 | 0.00 | 1 | 1013.7 |
| 20260901182516 | 71 | 120 | 11.0 | 17.0 | 0.00 | 0.00 | 0.00 | 1 | 1013.7 |
| 20260901182018 | 71 | 130 | 10.0 | 18.0 | 0.00 | 0.00 | 0.00 | 1 | 1013.7 |
| 20260901181540 | 71 | 128 | 13.0 | 18.0 | 0.00 | 0.00 | 0.00 | 1 | 1013.7 |
| 20260901181017 | 71 | 137 | 13.0 | 17.0 | 0.00 | 0.00 | 0.00 | 1 | 1013.7 |
| 20260901180521 | 71 | 142 | 13.0 | 18.0 | 0.00 | 0.00 | 0.00 | 1 | 1013.8 |
| 20260901180050 | 71 | 132 | 12.0 | 18.0 | 0.00 | 0.00 | 0.00 | 1 | 1014.0 |
| 20260901175521 | 71 | 108 | 13.0 | 18.0 | 0.00 | 0.00 | 0.00 | 1 | 1013.9 |
| 20260901175019 | 72 | 110 | 13.0 | 17.0 | 0.00 | 0.00 | 0.00 | 1 | 1014.0 |
| 20260901174546 | 70 | 136 | 12.0 | 16.0 | 0.00 | 0.00 | 0.00 | 1 | 1014.0 |
| 20260901174018 | 70 | 104 | 11.0 | 16.0 | 0.00 | 0.00 | 0.00 | 1 | 1014.0 |
| 20260901173518 | 70 | 146 | 11.0 | 16.0 | 0.00 | 0.00 | 0.00 | 1 | 1013.9 |
| 20260901173037 | 69 | 117 | 11.0 | 16.0 | 0.00 | 0.00 | 0.00 | 1 | 1014.0 |
| 20260901172519 | 69 | 130 | 10.0 | 17.0 | 0.00 | 0.00 | 0.00 | 1 | 1014.0 |
| 20260901172022 | 69 | 108 | 11.0 | 17.0 | 0.00 | 0.00 | 0.00 | 1 | 1014.0 |
| 20260901171549 | 68 | 130 | 12.0 | 16.0 | 0.00 | 0.00 | 0.00 | 1 | 1014.3 |
| 20260901171018 | 69 | 140 | 10.0 | 16.0 | 0.00 | 0.00 | 0.00 | 1 | 1014.3 |
| 20260901170518 | 68 | 107 | 9.0 | 15.0 | 0.00 | 0.00 | 0.00 | 1 | 1014.4 |
| 20260901170051 | 68 | 101 | 10.0 | 17.0 | 0.00 | 0.00 | 0.00 | 1 | 1014.3 |
| 20260901165516 | 67 | 107 | 12.0 | 17.0 | 0.00 | 0.00 | 0.00 | 1 | 1014.4 |
| 20260901165020 | 67 | 134 | 13.0 | 17.0 | 0.00 | 0.00 | 0.00 | 1 | 1014.3 |
| 20260901164541 | 66 | 120 | 12.0 | 17.0 | 0.00 | 0.00 | 0.00 | 1 | 1014.3 |
| 20260901164021 | 67 | 133 | 10.0 | 17.0 | 0.00 | 0.00 | 0.00 | 1 | 1014.4 |
| 20260901163519 | 67 | 127 | 9.0 | 16.0 | 0.00 | 0.00 | 0.00 | 1 | 1014.4 |
| 20260901163045 | 66 | 123 | 10.0 | 13.0 | 0.00 | 0.00 | 0.00 | 1 | 1014.3 |
| 20260901162517 | 65 | 129 | 11.0 | 14.0 | 0.00 | 0.00 | 0.00 | 1 | 1014.2 |
| 20260901162020 | 65 | 133 | 10.0 | 15.0 | 0.00 | 0.00 | 0.00 | 1 | 1014.2 |
| 20260901161541 | 65 | 132 | 12.0 | 18.0 | 0.00 | 0.00 | 0.00 | 1 | 1014.2 |
| 20260901161016 | 64 | 126 | 13.0 | 18.0 | 0.00 | 0.00 | 0.00 | 1 | 1014.4 |
| 20260901160520 | 64 | 129 | 13.0 | 17.0 | 0.00 | 0.00 | 0.00 | 1 | 1014.4 |
| 20260901160059 | 64 | 133 | 11.0 | 18.0 | 0.00 | 0.00 | 0.00 | 1 | 1014.4 |
| 20260901155516 | 64 | 115 | 12.0 | 18.0 | 0.00 | 0.00 | 0.00 | 1 | 1014.3 |
| 20260901155017 | 64 | 134 | 10.0 | 16.0 | 0.00 | 0.00 | 0.00 | 1 | 1014.5 |
| 20260901154551 | 63 | 119 | 10.0 | 17.0 | 0.00 | 0.00 | 0.00 | 1 | 1014.6 |
| 20260901154021 | 63 | 130 | 13.0 | 17.0 | 0.00 | 0.00 | 0.00 | 1 | 1014.5 |
| 20260901153521 | 63 | 123 | 12.0 | 15.0 | 0.00 | 0.00 | 0.00 | 1 | 1014.6 |
| 20260901153100 | 63 | 113 | 9.0 | 14.0 | 0.00 | 0.00 | 0.00 | 1 | 1014.5 |
| 20260901152517 | 63 | 121 | 9.0 | 14.0 | 0.00 | 0.00 | 0.00 | 1 | 1014.7 |
| 20260901152017 | 64 | 145 | 9.0 | 13.0 | 0.00 | 0.00 | 0.00 | 1 | 1014.8 |
| 20260901151544 | 63 | 126 | 8.0 | 14.0 | 0.00 | 0.00 | 0.00 | 1 | 1014.9 |
| 20260901151017 | 63 | 143 | 8.0 | 14.0 | 0.00 | 0.00 | 0.00 | 1 | 1014.8 |
| 20260901150518 | 62 | 112 | 8.0 | 15.0 | 0.00 | 0.00 | 0.00 | 1 | 1014.8 |
| 20260901150058 | 62 | 110 | 9.0 | 15.0 | 0.00 | 0.00 | 0.00 | 1 | 1014.7 |
| 20260901145521 | 62 | 119 | 8.0 | 12.0 | 0.00 | 0.00 | 0.00 | 1 | 1014.7 |
| 20260901145018 | 62 | 94 | 6.0 | 12.0 | 0.00 | 0.00 | 0.00 | 1 | 1014.6 |
| 20260901144551 | 62 | 98 | 7.0 | 12.0 | 0.00 | 0.00 | 0.00 | 1 | 1014.9 |
| 20260901144019 | 61 | 103 | 7.0 | 10.0 | 0.00 | 0.00 | 0.00 | 1 | 1014.6 |
| 20260901143519 | 60 | 103 | 6.0 | 11.0 | 0.00 | 0.00 | 0.00 | 1 | 1014.7 |
| 20260901143047 | 60 | 105 | 8.0 | 11.0 | 0.00 | 0.00 | 0.00 | 1 | 1014.6 |
| 20260901142517 | 61 | 67 | 7.0 | 11.0 | 0.00 | 0.00 | 0.00 | 1 | 1014.5 |
| 20260901142018 | 61 | 105 | 5.0 | 9.0 | 0.00 | 0.00 | 0.00 | 1 | 1014.4 |
| 20260901141541 | 60 | 91 | 6.0 | 9.0 | 0.00 | 0.00 | 0.00 | 1 | 1014.5 |
| 20260901141018 | 60 | 89 | 6.0 | 9.0 | 0.00 | 0.00 | 0.00 | 1 | 1014.4 |
| 20260901140517 | 59 | 80 | 7.0 | 10.0 | 0.00 | 0.00 | 0.00 | 1 | 1014.2 |
| 20260901140125 | 58 | 69 | 5.0 | 10.0 | 0.00 | 0.00 | 0.00 | 1 | 1014.0 |
| 20260901135518 | 58 | 61 | 5.0 | 12.0 | 0.00 | 0.00 | 0.00 | 1 | 1013.9 |
| 20260901135018 | 58 | 63 | 6.0 | 12.0 | 0.00 | 0.00 | 0.00 | 1 | 1014.0 |
| 20260901134552 | 57 | 80 | 5.0 | 8.0 | 0.00 | 0.00 | 0.00 | 1 | 1014.1 |
| 20260901134022 | 57 | 69 | 4.0 | 9.0 | 0.00 | 0.00 | 0.00 | 1 | 1014.1 |
| 20260901133516 | 57 | 53 | 5.0 | 9.0 | 0.00 | 0.00 | 0.00 | 1 | 1014.2 |
| 20260901133041 | 57 | 66 | 5.0 | 8.0 | 0.00 | 0.00 | 0.00 | 1 | 1014.2 |
| 20260901132519 | 57 | 92 | 6.0 | 8.0 | 0.00 | 0.00 | 0.00 | 1 | 1014.2 |
| 20260901132022 | 57 | 87 | 5.0 | 10.0 | 0.00 | 0.00 | 0.00 | 1 | 1014.1 |
| 20260901131547 | 57 | 84 | 6.0 | 10.0 | 0.00 | 0.00 | 0.00 | 1 | 1014.1 |
| 20260901131023 | 57 | 87 | 7.0 | 9.0 | 0.00 | 0.00 | 0.00 | 1 | 1014.1 |
| 20260901130522 | 56 | 90 | 7.0 | 9.0 | 0.00 | 0.00 | 0.00 | 1 | 1014.2 |
| 20260901130055 | 56 | 84 | 5.0 | 11.0 | 0.00 | 0.00 | 0.00 | 1 | 1014.2 |
| 20260901125517 | 56 | 98 | 6.0 | 14.0 | 0.00 | 0.00 | 0.00 | 1 | 1014.3 |
| 20260901125016 | 57 | 82 | 8.0 | 14.0 | 0.00 | 0.00 | 0.00 | 1 | 1014.2 |
| 20260901124540 | 56 | 79 | 7.0 | 12.0 | 0.00 | 0.00 | 0.00 | 1 | 1014.2 |
| 20260901124020 | 55 | 90 | 5.0 | 10.0 | 0.00 | 0.00 | 0.00 | 1 | 1014.2 |
| 20260901123517 | 54 | 74 | 5.0 | 9.0 | 0.00 | 0.00 | 0.00 | 1 | 1014.1 |
| 20260901123046 | 54 | 64 | 6.0 | 9.0 | 0.00 | 0.00 | 0.00 | 1 | 1014.1 |
| 20260901122521 | 54 | 79 | 5.0 | 9.0 | 0.00 | 0.00 | 0.00 | 1 | 1014.1 |
| 20260901122018 | 53 | 57 | 5.0 | 7.0 | 0.00 | 0.00 | 0.00 | 1 | 1014.2 |
| 20260901121548 | 54 | 59 | 5.0 | 7.0 | 0.00 | 0.00 | 0.00 | 1 | 1014.3 |
| 20260901121019 | 54 | 78 | 5.0 | 8.0 | 0.00 | 0.00 | 0.00 | 1 | 1014.2 |
| 20260901120521 | 55 | 78 | 5.0 | 10.0 | 0.00 | 0.00 | 0.00 | 1 | 1014.3 |
| 20260901120045 | 56 | 82 | 6.0 | 10.0 | 0.00 | 0.00 | 0.00 | 1 | 1014.2 |
| 20260901115519 | 55 | 84 | 6.0 | 10.0 | 0.00 | 0.00 | 0.00 | 1 | 1014.2 |
| 20260901115019 | 55 | 92 | 5.0 | 13.0 | 0.00 | 0.00 | 0.00 | 1 | 1014.3 |